User: anonymous
Location: Pine Mountain Observatory
(43.7910°N, 120.9377°W)
Time: 14:01:49
(UTC-07:00)
Language:

Cosmos 1867 - Orbit

View from above orbital plane
View from above orbital plane
View from above satellite
View from above satellite

Ground track
Ground track

The orbit data is extracted from the following two-line orbital elements,

1 18187U 87060A   14244.42976682 -.00000111  00000-0 -39118-5 0  1416
2 18187 065.0110 202.5935 0014576 262.8471 097.0956 14.31025484418077
Epoch (UTC): 01 September 2014 10:18:51
Eccentricity: 0.0014576
inclination: 65.0110°
perigee height: 778 km
apogee height: 799 km
right ascension of ascending node: 202.5935°
argument of perigee: 262.8471°
revolutions per day: 14.31025484
mean anomaly at epoch: 97.0956°
orbit number at epoch: 41807

The dashed part of the orbit path shows where the satellite is in the earth's shadow,  

DLR